Location: Borotín
(49.5055°N, 14.6142°E)
Time: 10:51:06
(UTC+00:00)

Meteor 1-24 Rocket - Pass Details

Date: 27 May 2022
Orbit: 789 x 928 km, 81.3° (Epoch: 27 June)

Event Time Altitude Azimuth Distance (km) Brightness Sun altitude
Exits shadow 00:25:36 22° 172° (S) 1,752 4.9 -16.6°
Maximum altitude 00:29:09 63° 97° (E) 927 3.9 -16.4°
Drops below altitude 10° 00:34:31 10° 18° (NNE) 2,410 7.4 -16.1°
Sets 00:36:54 0° 15° (NNE) 3,331 8.6 -15.9°
